loading
|

OBJECT C, 61229

Orbit data source: Space-Track

OBJECT C, 61229 is a satellite owned by Wuhan daxue (CN) in SSO that was launched on Tue, 24 Sep 2024 UTC via a JIELONG-3 launch vehicle from the Yellow Sea Launch Area, China (YSLA). Unknown objects in Earth's orbit typically refer to objects detected orbiting the Earth but have not yet been identified or cataloged. These objects could be anything from previously untracked satellites, spent rocket stages, debris from satellite collisions, or even natural meteoroids temporarily captured by Earth's gravity.

Loading next visibility...
Next conjunction unknown
Loading greatness...
OBJECT C details
Identifier
61229, 2024-173C
Orbit
SSO
Last TLE update4 hours ago
Origin
Flag of CNWuhan daxue (CN / PRC)
ManufacturerWuhan daxue
MissionOperational spacecraft
Bus & MotorLUOJIA-4, Unknown motor
Mass60 kg wet, 60 kg dry
Launch date (UTC)
2024-09-24 (3 weeks ago)
Launch vehicle
JIELONG-3
Launch site
Yellow Sea Launch Area, China (YSLA)
Object typeUnknown
Shape & HBRUnknown
Radar Cross SectionMedium (>0.1 m² and <1 m²)

Expand to show TLE details & history

TLE from 4 hours ago
0 OBJECT C
1 61229U 24173C   24288.49093582  .00029925  00000-0  11693-2 0  9990
2 61229  97.4043   1.0814 0011941 202.1335 157.9389 15.25757778  3093
Epoch: 2024-10-14T11:46Z
Definitive object data (Epoch: 2024-10-14T11:46:56.854Z)
Latitude-0.00007°
Longitude160.8272°
Altitude499.211 km
Speed7.611 km/s
True Right ascension00h 04m 19s
True Declination0° 00' 00"
Sunlit
Object was in full shadow at TLE epoch
Predictive object data (real-time)
Latitude-2.31923°
Longitude-19.30998°
Altitude484.171 km
Speed7.627 km/s
Apparent Right ascension14h 49m 37s
Apparent Declination-52° 48' 24"
Sunlit
Object is in daylight
Predictive observer data (real-time)
Local Sidereal Time10:17:51
Azimuth143.482° SSE
Elevation-19.696°
Doppler factor1
Orbital elements
Apogee493.665 km
Perigee477.273 km
Semi-major axis6,863.606 km
Eccentricity0.0011941
Inclination97.4043°
RAAN1.0814°
Arg. of periapsis202.1335°
True anomaly157.99022°
Mean anomaly157.9389°
Eccentric anomaly157.96457°
Mean motion3.81693 °/min
BSTAR0.0011693
Period94.32 mins
No data available

OBJECT C Visibility forecast

Observer location: 39.9160978°, -105.1181434

Span
Click to sort rows by Start time (UTC) header in descending order
Start Az.
Max El. time (UTC)
Max El. Az.
Max El.
End time (UTC)
End Az.
4 mins2024-10-14 17:05:37.007Z59.614° ENE2024-10-14 17:07:37.007Z102.681° ESE18.519°2024-10-14 17:09:37.007Z139.589° SSE
5 mins2024-10-15 05:14:37.007Z186.453° SSW2024-10-15 05:16:37.007Z295.661° NW40.621°2024-10-15 05:19:37.007Z341.233° N